• In Italy
  • List of Countries
  • For 7 days
  • Water Temperature
  • Satellite Maps
  • Weather Map
  • Weather Widgets
  • user-avatar
    Login

    Hourly Weather Zherlaki

    Today, 24 September, Monday

    Time Temperature Precipitation Wind Pressure Humidity
    00:00 +8°C° 0.3 mm 2 mps 738 mmHg 91%
    01:00 +8°C° 0.3 mm 2 mps 737 mmHg 92%
    02:00 +8°C° 0 mm 2 mps 736 mmHg 95%
    03:00 +8°C° 1.6 mm 2 mps 735 mmHg 95%
    04:00 +8°C° 1.6 mm 2 mps 735 mmHg 96%
    05:00 +8°C° 1.6 mm 3 mps 734 mmHg 96%
    06:00 +8°C° 2.5 mm 3 mps 733 mmHg 96%
    07:00 +7°C° 2.5 mm 4 mps 732 mmHg 96%
    08:00 +7°C° 2.5 mm 4 mps 731 mmHg 96%
    09:00 +7°C° 1.6 mm 5 mps 731 mmHg 95%
    10:00 +7°C° 1.6 mm 6 mps 731 mmHg 94%
    11:00 +7°C° 1.6 mm 6 mps 731 mmHg 93%
    12:00 +6°C° 0.6 mm 7 mps 732 mmHg 90%
    13:00 +8°C° 0.6 mm 7 mps 733 mmHg 87%
    14:00 +8°C° 0.6 mm 7 mps 733 mmHg 84%
    15:00 +9°C° 0.1 mm 6 mps 734 mmHg 84%
    16:00 +9°C° 0.1 mm 6 mps 735 mmHg 83%
    17:00 +9°C° 0.1 mm 5 mps 736 mmHg 83%
    18:00 +8°C° 0.1 mm 5 mps 736 mmHg 84%
    19:00 +7°C° 0.1 mm 5 mps 737 mmHg 86%
    20:00 +7°C° 0.1 mm 5 mps 737 mmHg 88%
    21:00 +6°C° 0 mm 5 mps 738 mmHg 88%
    22:00 +6°C° 0 mm 5 mps 739 mmHg 88%
    23:00 +5°C° 0 mm 5 mps 739 mmHg 87%

    Tomorrow, 25 September, Tuesday

    Time Temperature Precipitation Wind Pressure Humidity
    00:00 +5°C° 0 mm 5 mps 740 mmHg 88%
    01:00 +5°C° 0 mm 5 mps 740 mmHg 89%
    02:00 +3°C° 0 mm 5 mps 741 mmHg 90%
    03:00 +3°C° 0 mm 5 mps 742 mmHg 89%
    04:00 +3°C° 0 mm 5 mps 742 mmHg 89%
    05:00 +2°C° 0 mm 5 mps 743 mmHg 88%
    06:00 +3°C° 0 mm 6 mps 743 mmHg 85%
    07:00 +3°C° 0 mm 6 mps 744 mmHg 82%
    08:00 +3°C° 0 mm 6 mps 745 mmHg 79%
    09:00 +5°C° 0.1 mm 7 mps 745 mmHg 74%
    10:00 +6°C° 0.1 mm 7 mps 746 mmHg 68%
    11:00 +8°C° 0.1 mm 7 mps 746 mmHg 63%
    12:00 +8°C° 0.1 mm 7 mps 747 mmHg 59%
    13:00 +8°C° 0.1 mm 7 mps 747 mmHg 56%
    14:00 +9°C° 0.1 mm 7 mps 748 mmHg 53%
    15:00 +8°C° 0 mm 6 mps 748 mmHg 54%
    16:00 +8°C° 0 mm 6 mps 749 mmHg 56%
    17:00 +7°C° 0 mm 5 mps 749 mmHg 58%
    18:00 +6°C° 0 mm 4 mps 750 mmHg 58%
    19:00 +5°C° 0 mm 4 mps 751 mmHg 59%
    20:00 +4°C° 0 mm 4 mps 751 mmHg 60%
    21:00 +4°C° 0 mm 4 mps 752 mmHg 64%
    22:00 +3°C° 0 mm 4 mps 753 mmHg 68%
    23:00 +1°C° 0 mm 4 mps 753 mmHg 72%

    Day after tomorrow, 26 September, Wednesday

    Time Temperature Precipitation Wind Pressure Humidity
    00:00 +2°C° 0 mm 3 mps 754 mmHg 77%
    01:00 +2°C° 0 mm 3 mps 754 mmHg 82%
    02:00 +2°C° 0 mm 3 mps 754 mmHg 86%
    03:00 +2°C° 0 mm 3 mps 754 mmHg 87%
    04:00 +2°C° 0 mm 3 mps 755 mmHg 88%
    05:00 +1°C° 0 mm 3 mps 755 mmHg 88%
    06:00 +1°C° 0 mm 4 mps 755 mmHg 84%
    07:00 +3°C° 0 mm 4 mps 755 mmHg 80%
    08:00 +4°C° 0 mm 4 mps 755 mmHg 76%
    09:00 +6°C° 0 mm 5 mps 755 mmHg 70%
    10:00 +7°C° 0 mm 5 mps 754 mmHg 64%
    11:00 +9°C° 0 mm 6 mps 754 mmHg 57%
    12:00 +9°C° 0 mm 6 mps 754 mmHg 58%
    13:00 +9°C° 0 mm 7 mps 753 mmHg 59%
    14:00 +9°C° 0 mm 7 mps 752 mmHg 60%
    15:00 +9°C° 0.1 mm 7 mps 752 mmHg 63%
    16:00 +8°C° 0.1 mm 6 mps 751 mmHg 66%
    17:00 +7°C° 0.1 mm 6 mps 750 mmHg 69%
    18:00 +6°C° 0.3 mm 7 mps 750 mmHg 73%
    19:00 +6°C° 0.3 mm 7 mps 749 mmHg 76%
    20:00 +5°C° 0.3 mm 8 mps 748 mmHg 80%
    21:00 +5°C° 0.4 mm 8 mps 747 mmHg 82%
    22:00 +5°C° 0.4 mm 8 mps 746 mmHg 84%
    23:00 +5°C° 0.4 mm 8 mps 746 mmHg 86%

    27 September, Thursday

    Time Temperature Precipitation Wind Pressure Humidity
    00:00 +5°C° 0.2 mm 8 mps 745 mmHg 87%
    01:00 +6°C° 0.2 mm 8 mps 745 mmHg 88%
    02:00 +6°C° 0.2 mm 8 mps 744 mmHg 89%
    03:00 +6°C° 0.3 mm 8 mps 744 mmHg 90%
    04:00 +7°C° 0.3 mm 8 mps 743 mmHg 90%
    05:00 +7°C° 0.3 mm 8 mps 743 mmHg 90%
    06:00 +8°C° 0.5 mm 7 mps 742 mmHg 91%
    07:00 +9°C° 0.5 mm 7 mps 742 mmHg 91%
    08:00 +9°C° 0.5 mm 7 mps 742 mmHg 92%
    09:00 +10°C° 0.9 mm 6 mps 742 mmHg 92%
    10:00 +10°C° 0.9 mm 5 mps 742 mmHg 93%
    11:00 +12°C° 0.9 mm 5 mps 742 mmHg 94%
    12:00 +12°C° 1 mm 4 mps 742 mmHg 94%
    13:00 +12°C° 1 mm 4 mps 742 mmHg 94%
    14:00 +12°C° 1 mm 4 mps 742 mmHg 94%
    15:00 +12°C° 0.6 mm 4 mps 743 mmHg 94%
    16:00 +12°C° 0.6 mm 4 mps 743 mmHg 94%
    17:00 +12°C° 0.6 mm 4 mps 743 mmHg 93%
    18:00 +12°C° 0.2 mm 4 mps 743 mmHg 94%
    19:00 +12°C° 0.2 mm 4 mps 744 mmHg 94%
    20:00 +12°C° 0.2 mm 5 mps 744 mmHg 94%
    21:00 +12°C° 0.1 mm 4 mps 744 mmHg 94%
    22:00 +12°C° 0.1 mm 4 mps 744 mmHg 94%
    23:00 +12°C° 0.1 mm 4 mps 744 mmHg 94%

    28 September, Friday

    Time Temperature Precipitation Wind Pressure Humidity
    00:00 +12°C° 0 mm 4 mps 744 mmHg 94%
    01:00 +12°C° 0 mm 5 mps 744 mmHg 94%
    02:00 +12°C° 0 mm 5 mps 743 mmHg 94%
    03:00 +11°C° 0 mm 6 mps 743 mmHg 93%
    04:00 +11°C° 0 mm 6 mps 742 mmHg 92%
    05:00 +11°C° 0 mm 6 mps 741 mmHg 91%
    06:00 +12°C° 0.1 mm 7 mps 741 mmHg 91%
    07:00 +12°C° 0.1 mm 7 mps 741 mmHg 90%
    08:00 +12°C° 0.1 mm 7 mps 740 mmHg 90%
    09:00 +12°C° 0.1 mm 7 mps 740 mmHg 89%
    10:00 +12°C° 0.1 mm 8 mps 740 mmHg 88%
    11:00 +13°C° 0.1 mm 8 mps 739 mmHg 88%
    12:00 +13°C° 0.1 mm 8 mps 739 mmHg 85%
    13:00 +13°C° 0.1 mm 8 mps 739 mmHg 83%
    14:00 +13°C° 0.1 mm 8 mps 738 mmHg 80%
    15:00 +14°C° 0.1 mm 7 mps 739 mmHg 80%
    16:00 +12°C° 0.1 mm 7 mps 739 mmHg 79%
    17:00 +12°C° 0.1 mm 7 mps 739 mmHg 79%
    18:00 +10°C° 0 mm 6 mps 740 mmHg 81%
    19:00 +9°C° 0 mm 5 mps 740 mmHg 83%
    20:00 +7°C° 0 mm 5 mps 741 mmHg 85%
    21:00 +7°C° 0 mm 4 mps 741 mmHg 86%
    22:00 +6°C° 0 mm 4 mps 742 mmHg 86%
    23:00 +5°C° 0 mm 3 mps 743 mmHg 87%

    29 September, Saturday

    Time Temperature Precipitation Wind Pressure Humidity
    00:00 +5°C° 0 mm 3 mps 743 mmHg 87%
    01:00 +4°C° 0 mm 3 mps 744 mmHg 88%
    02:00 +4°C° 0 mm 3 mps 744 mmHg 88%
    03:00 +4°C° 0 mm 3 mps 744 mmHg 89%
    04:00 +5°C° 0 mm 2 mps 745 mmHg 90%
    05:00 +4°C° 0 mm 2 mps 745 mmHg 90%
    06:00 +4°C° 0 mm 3 mps 746 mmHg 89%
    07:00 +4°C° 0 mm 3 mps 746 mmHg 87%
    08:00 +4°C° 0 mm 4 mps 747 mmHg 86%
    09:00 +5°C° 0 mm 4 mps 747 mmHg 79%
    10:00 +7°C° 0 mm 5 mps 748 mmHg 72%
    11:00 +8°C° 0 mm 5 mps 749 mmHg 65%
    12:00 +8°C° 0 mm 5 mps 749 mmHg 62%
    13:00 +8°C° 0 mm 5 mps 749 mmHg 58%
    14:00 +9°C° 0 mm 5 mps 750 mmHg 55%
    15:00 +8°C° 0 mm 5 mps 750 mmHg 59%
    16:00 +7°C° 0 mm 4 mps 751 mmHg 64%
    17:00 +7°C° 0 mm 4 mps 751 mmHg 68%
    18:00 +5°C° 0 mm 3 mps 752 mmHg 73%
    19:00 +4°C° 0 mm 3 mps 752 mmHg 77%
    20:00 +4°C° 0 mm 2 mps 753 mmHg 82%
    21:00 +3°C° 0 mm 2 mps 753 mmHg 82%
    22:00 +4°C° 0 mm 1 mps 754 mmHg 82%
    23:00 +4°C° 0 mm 1 mps 754 mmHg 82%
    Show more